Location: ??????????
(48.5701°N, 37.7703°E)
Time: 01:14:13
(UTC+00:00)

Daily predictions for brighter satellites

Satellite Brightness Start Highest point End
(mag) Time Altitude Azimuth Time Altitude Azimuth Time Altitude Azimuth
Cosmos 1980 Rocket 2.2 00:00:49 10° NNW 00:06:35 88° WSW 00:12:16 10° SSE
Abrixas rocket 1.9 00:04:15 10° W 00:07:04 51° SSW 00:09:53 10° ESE
Cosmos 1242 Rocket 3.3 00:09:31 10° N 00:12:54 51° ENE 00:16:18 10° SSE
SL-8 R/B 3.7 00:08:43 10° WSW 00:13:32 81° S 00:18:22 10° E
IRS-P3 4.2 00:10:08 10° NNE 00:15:30 83° ESE 00:20:42 11° SSW
SL-16 R/B 3.5 00:11:55 15° SW 00:16:08 30° W 00:21:33 10° NW
Lacrosse 5 3.4 00:13:49 10° WNW 00:18:28 34° N 00:23:07 10° NE
IDEFIX/ARIANE 42P 3.7 00:14:00 10° NNE 00:18:54 40° E 00:23:45 10° SSE
deb Kosmos-1763 4.0 00:16:07 16° SSW 00:18:54 86° ESE 00:22:32 10° NNE
Cosmos 1378 3.4 00:17:55 10° N 00:21:41 73° ENE 00:25:26 10° SSE
BREEZE-M DEB (TANK) 2.7 00:20:48 10° W 00:25:02 51° SSW 00:27:46 10° ESE
Cosmos 2278 3.8 00:20:23 10° NW 00:26:00 57° WSW 00:31:34 10° S
Meteor 1-11 Rocket 4.0 00:21:40 13° SSW 00:26:28 55° WNW 00:31:55 10° N
SL-16 R/B 3.3 00:23:18 10° NNW 00:28:49 49° NE 00:34:18 10° SE
Cosmos 1536 3.4 00:27:10 14° SW 00:30:27 44° WNW 00:34:21 10° N
Cosmos 1954 Rocket 4.4 00:28:05 13° SW 00:32:43 55° WNW 00:37:58 10° NNE
H-2A R/B 2.7 00:28:50 10° SSE 00:33:08 59° ENE 00:37:22 10° N
Cosmos 1356 3.5 00:31:10 12° SSW 00:34:14 64° WNW 00:37:40 10° N
Cosmos 1697 Rocket 3.5 00:29:33 10° NW 00:34:26 31° WSW 00:39:18 10° SSW
Cosmos 921 Rocket 3.7 00:31:49 10° NW 00:35:50 35° W 00:39:45 10° SSW
Cosmos 1263 4.0 00:33:18 10° N 00:36:17 86° W 00:39:22 10° S
Cosmos 1975 3.9 00:36:13 10° SSE 00:40:00 44° E 00:43:49 10° NNE
SeaSat 1 3.3 00:35:36 10° NNE 00:40:11 40° NW 00:44:46 10° WSW
CZ-2C R/B 3.9 00:37:06 10° NNE 00:41:02 45° E 00:44:54 10° S
CZ-4B R/B 4.5 00:40:14 10° ESE 00:42:48 19° ENE 00:45:21 10° NNE
CZ-2D R/B 3.6 00:40:02 10° N 00:44:13 24° WNW 00:48:26 10° WSW
IRS-1D 4.2 00:39:42 10° N 00:44:17 39° WNW 00:48:51 10° SW
Cosmos 1378 Rocket 3.8 00:41:13 10° NNW 00:45:31 52° W 00:49:49 10° S
Cosmos 2082 Rocket 2.5 00:40:40 10° SW 00:46:15 62° WNW 00:51:56 10° NNE
Cosmos 1842 3.9 00:43:58 10° N 00:47:54 60° ENE 00:51:48 10° SSE
Cosmos 1763 Rocket 3.6 00:44:37 10° NNW 00:49:50 63° WSW 00:55:04 10° S
Cosmos 1833 Rocket 3.6 00:45:11 10° WSW 00:50:24 38° NW 00:55:39 10° NNE
SL-27 R/B 3.8 00:48:45 10° S 00:52:01 37° ESE 00:55:14 10° NE
CZ-4C R/B 2.8 00:51:06 10° SSE 00:54:19 88° ENE 00:57:30 10° NNW
ERS-2 2.1 00:56:16 10° S 00:59:53 75° WSW 01:03:33 10° NNW
Cosmos 468 Rocket 4.4 00:55:50 10° NW 01:00:52 45° WSW 01:05:54 10° S
Meteor 1-28 Rocket 4.0 00:57:37 10° SSW 01:01:00 32° W 01:04:24 10° NNW
SL-19 R/B 3.9 00:58:30 10° NNE 01:01:24 66° ESE 01:04:31 10° S
Okean 2 3.3 00:57:45 10° NNW 01:01:52 79° W 01:05:56 10° S
Cosmos 1570 Rocket 4.0 00:57:32 10° NNW 01:02:49 83° WSW 01:08:06 10° SSE
